Back to catalog

STARLINK-37633

AliveCommunicationsSSO
NORAD 69133·PAYLOAD·🇺🇸 United States

Launched May 20, 2026 from Vandenberg Space Force Base

Loading…

Next Passes (next 24 hours)

TLE

FreshSource: CelesTrak SupGP

Epoch: Sep 14, 2026, 15:14 UTC

1 69133C 26110K   26257.63520833 -.00077231  00000+0 -23982-2 0  2578
2 69133  97.2850  92.7628 0001685  84.6561  16.6440 15.33466930    11

Track STARLINK-37633 in real time with AllMySat

Download on the App Store